Regional Weather Roundup
Issued by NWS

Home | Current Version | Previous Version | Graphics & Text | Print | Product List | Glossary On
Versions: 1 2 3 4 5 6 7 8 9 10 11 12 13 14 15 16 17 18 19 20 21 22 23 24 25 26 27 28 29 30 31 32 33 34 35 36 37 38 39 40 41 42 43 44 45 46 47 48 49 50
000
ASUS43 KDTX 270810
RWRMI
MICHIGAN HOURLY REGIONAL WEATHER ROUNDUP
NATIONAL WEATHER SERVICE DETROIT/PONTIAC MI
300 AM EST TUE JAN 27 2015

NOTE: "FAIR" INDICATES FEW OR NO CLOUDS BELOW 12,000 FEET WITH NO
SIGNIFICANT WEATHER AND/OR OBSTRUCTION TO VISIBILITY.

MIZ047>049-052>055-059>063-066>070-074>076-081>083-270900-
SOUTHEAST LOWER MICHIGAN

CITY           SKY/WX    TMP DP  RH WIND       PRES   REMARKS
ADRIAN         MOCLDY    16  12  84 CALM      29.98R
ALMA           CLOUDY    15  12  88 CALM      30.02S
ANN ARBOR      PTCLDY     7   3  84 CALM      29.97R
BAD AXE        CLEAR      4   1  88 CALM      30.02S
DETROIT CITY   CLEAR     15   7  70 N3        29.99R
DETROIT        PTCLDY    13   9  84 CALM      30.00R
FLINT          CLEAR     10   6  84 CALM      30.00R
GROSSE ILE     CLEAR     10   9  92 CALM      29.97S
HILLSDALE      CLOUDY    17  11  77 CALM      29.93S
HOWELL         CLEAR     10   8  93 N3        29.98R

CITY           SKY/WX    TMP DP  RH WIND       PRES   REMARKS
JACKSON        MOCLDY    17  10  74 CALM      29.96R
LAMBERTVILLE   PTCLDY    10   7  85 CALM      29.98S
LANSING        CLOUDY    15  10  80 N3        30.00R
LAPEER         NOT AVBL
MASON          CLOUDY    14  10  84 CALM      29.98R
MONROE         CLEAR     10   9  92 N3        29.97R
MT. CLEMENS    PTCLDY    11   7  83 N5        29.97R
PONTIAC        CLEAR      8   4  83 W3        29.97R
PORT HOPE        N/A     19   9  65 NE8       30.02R
PORT HURON     PTCLDY     5   3  92 NW3       30.00R
TRI CITIES     PTCLDY    12   7  80 NE7       30.03R
YPSILANTI      CLEAR     12   5  73 NE3       29.99R
$$
MIZ043>046-050>051-056>058-064>065-071>073-077>080-270900-
SOUTHWEST LOWER MICHIGAN

CITY           SKY/WX    TMP DP  RH WIND       PRES   REMARKS
BATTLE CREEK   CLOUDY    21  10  62 NE7       29.96R
BENTON HARBOR  CLOUDY    22  12  65 E5        29.97R
BIG RAPIDS     CLOUDY    18  10  71 CALM      29.99S
COLDWATER      CLOUDY    19  10  67 E5        29.94R
HOLLAND        CLOUDY    22  12  65 E6        29.99R
GRAND RAPIDS   CLOUDY    18  12  77 NE6       29.99R
KALAMAZOO      CLOUDY    21  10  62 NE3       29.97R
MARSHALL       CLOUDY    17  10  75 CALM      29.95R
MUSKEGON       CLOUDY    20  12  71 E9        30.00R
$$
MIZ016>042-270900-
NORTHERN LOWER MICHIGAN

CITY           SKY/WX    TMP DP  RH WIND       PRES   REMARKS
ALPENA         CLOUDY    15  12  88 N8        30.08R
BEAVER ISLAND  MOCLDY    16  14  90 CALM      30.08R
BELLAIRE       CLOUDY    19  11  69 CALM      30.07R
CADILLAC       CLOUDY    16  10  80 E5        29.97S
CHARLEVOIX     CLOUDY    19  12  76 E7        30.10R
FRANKFORT      CLOUDY    20  13  73 E3        30.04R
GAYLORD        CLOUDY    15  12  88 NE6       30.01R
GRAYLING       CLOUDY    16  11  82 NE6       30.02R
HARBOR SPRINGS CLOUDY    18  12  76 NE5       30.07R
HOUGHTON LAKE  CLOUDY    15   9  76 NE5       30.01R
MANISTEE       CLOUDY    19   9  63 E5        30.03R
OSCODA         CLOUDY    13   7  79 NW3       30.04R
PELLSTON       CLOUDY    18  13  80 E7        30.08S
TRAVERSE CITY  CLOUDY    19  11  70 E5        30.04R
$$
MIZ007>008-015-270900-
EASTERN UPPER MICHIGAN

CITY           SKY/WX    TMP DP  RH WIND       PRES   REMARKS
KINROSS        MOCLDY     9   3  78 E7        30.10S
MACKINAC ISLAN MOCLDY    16   9  76 E12G17    30.08S
NEWBERRY       PTCLDY     6   2  83 E5        30.09R
S. S. MARIE    MOCLDY     9  -2  61 E3        30.11S
$$
MIZ004>006-011>014-085-270900-
CENTRAL UPPER MICHIGAN

CITY           SKY/WX    TMP DP  RH WIND       PRES   REMARKS
MANISTIQUE     PTCLDY    13  11  90 NE6       30.08R
ESCANABA       MOCLDY    19  16  86 NE3       30.05R
MENOMINEE      MOCLDY    19  18  93 E5        30.03R
SAWYER-GWINN   FLURRIES  17  14  88 SE3       30.02S
$$
MIZ001>003-009>011-084-270900-
WESTERN UPPER MICHIGAN

CITY           SKY/WX    TMP DP  RH WIND       PRES   REMARKS
IRON MOUNTAIN  CLOUDY    20  16  84 E5        30.00R
HOUGHTON       CLOUDY    21  17  84 E3        30.02R
COPPER HARBOR    N/A     24  17  74 VRB5      30.06R
IRONWOOD       CLOUDY    19  19 100 CALM      29.97R
$$

ABBREVIATIONS USED IN REMARKS
   TC - TEMPERATURE IN CELSIUS
  WCI - WIND CHILL INDEX
   HX - HEAT INDEX
  VSB - VISIBILITY



USA.gov is the U.S. government's official web portal to all federal, state and local government web resources and services.